Simultaneous Nadir Overpasses (SNOs) Predictions

Prediction of SNOs between GOES-15 and TERRA Satellite Orbit:

Table of predicted SNOs for the next 14.0 days since TLE Epoch: 12/31/2022
Index Date Time (GOES-15) GOES-15 Lat,Lon TERRA Lat,Lon Distance(km) Time Diff (sec)
1 01/01/2023 06:27:49 0.06,-127.78 0.79,-124.42 382.88 80
2 01/01/2023 18:48:08 -0.05,-127.73 0.30,-129.35 184.30 80
3 01/03/2023 18:35:02 -0.05,-127.79 -0.50,-125.54 255.40 80
4 01/04/2023 06:55:31 0.05,-127.87 -0.52,-130.52 300.62 80
5 01/06/2023 06:37:05 0.05,-127.92 0.30,-126.71 138.36 80
6 01/06/2023 18:57:25 -0.04,-127.87 0.77,-131.64 429.56 80
7 01/08/2023 18:44:19 -0.04,-127.92 -0.06,-127.83 9.35 80
8 01/10/2023 18:28:32 -0.03,-127.96 -0.85,-124.02 448.14 80
9 01/11/2023 06:49:01 0.03,-128.05 -0.16,-129.00 107.82 80
10 01/13/2023 06:30:34 0.03,-128.09 0.64,-125.18 330.63 80
11 01/13/2023 18:50:54 -0.03,-128.03 0.41,-130.12 237.73 80
